Find Starlink 31045

NORAD ID: 58541 Int'l Des: 2023-192 Owner: SPXS Country: US Constellation: starlink operational
LEOCIRCULAR

实时位置

正在加载3D地球...

关于 Starlink 31045

正在加载描述...

即将过境

Passes for default location (London). Set your location on the main map for personalized predictions.

高度历史

Loading altitude history...

两行轨道根数

1 58541U 23192L 26126.55818258 -.00003935 00000-0 -12090-3 0 9996
2 58541 53.1594 230.7871 0001310 92.2299 267.8851 15.30176959133750
Epoch: May 6, 2026 • Age: 12 hours

当前状态

高度 477.7 km
速度 7.63 km/s
星下点 -8.08°S, 171.73°E
发射日期 Dec 8, 2023
运行时间 2.4 years
类型 internet

技术详情

分类 Payload
质量 730.00 kg
干质量 700.00 kg
总质量 730.00 kg
长度 0.30 m
直径 4.10 m
跨度 29.00 m
形状 Box + pan
制造商 SPXS
平台类型 Starlink V2M
阶段状态 In Orbit
所有者/国家 SPXS/US

Most Searched